Location: Bittelbronn
(48.4454°N, 8.5870°E)
Time: 13:12:37
(UTC+00:00)

SJ 16-02 - Pass Details

Date: 23 April 2025
Orbit: 587 x 597 km, 75.0° (Epoch: 15 May)

Event Time Altitude Azimuth Distance (km) Brightness Sun altitude
Rises 20:20:57 0° 329° (NNW) 2,849 6.3 -16.6°
Reaches altitude 10° 20:23:25 10° 317° (NW) 1,943 5.2 -16.9°
Maximum altitude 20:27:05 27° 260° (W) 1,151 3.1 -17.3°
Drops below altitude 10° 20:30:44 10° 202° (SSW) 1,932 3.7 -17.7°
Enters shadow 20:30:50 10° 201° (SSW) 1,963 3.7 -17.7°
